Weather History for KCKB - August, 2013

Change the Weather History Date:

Sunday, August 18, 2013

  Actual Average Record
Temperature  
Mean Temperature 68 °F -  
Max Temperature 75 °F 81 °F 95 °F (1939)
Min Temperature 62 °F 60 °F 33 °F (1996)
Cooling Degree Days 2    
Growing Degree Days 18 (Base 50)    
Moisture  
Dew Point 63 °F    
Average Humidity 86    
Maximum Humidity 94    
Minimum Humidity 71    
Precipitation  
Precipitation 0.33 in - - ()
Sea Level Pressure  
Sea Level Pressure 30.17 in    
Wind  
Wind Speed 1 mph (North)    
Max Wind Speed 9 mph    
Max Gust Speed -    
Visibility 8 miles    
Events Rain    
Averages and records for this station are not official NWS values.
T = Trace of Precipitation, MM = Missing Value Source: NWS Daily Summary

Daily Weather History Graph

Daily Weather History Graph

Search for Another Location

Airport or City:

Trip Planner

Search our weather history database for the weather conditions in past years. The results will help you decide how hot, cold, wet, or windy it might be!

Date:

Astronomy

Aug. 18, 2013 Rise Set
Actual Time 6:36 AM EDT 8:11 PM EDT
Civil Twilight 6:08 AM EDT 8:40 PM EDT
Nautical Twilight 5:34 AM EDT 9:14 PM EDT
Astronomical Twilight 4:57 AM EDT 9:50 PM EDT
Moon 6:16 PM EDT (8/18) 3:44 AM EDT (8/18)
Length of Visible Light 14h 31m
Length of Day
13h 35m
Waxing Gibbous, 92% of the Moon is Illuminated
Aug 18
Waxing Gibbous
Aug 20
Full
Aug 28
Last Quarter
Sep 5
New
Sep 12
First Quarter

Hourly Weather History & Observations

Time (EDT) Temp. Dew Point Humidity Pressure Visibility Wind Dir Wind Speed Gust Speed Precip Events Conditions
12:53 AM 64.9 °F 59.0 °F 81% 30.17 in 10.0 mi Calm Calm - N/A   Overcast
1:53 AM 64.9 °F 61.0 °F 87% 30.17 in 8.0 mi Calm Calm - 0.00 in Rain Light Rain
2:53 AM 63.0 °F 61.0 °F 93% 30.16 in 3.0 mi Calm Calm - 0.16 in Rain Heavy Rain
3:02 AM 62.6 °F 60.8 °F 94% 30.19 in 2.0 mi Calm Calm - 0.05 in Rain Heavy Rain
3:17 AM 62.6 °F 60.8 °F 94% 30.19 in 6.0 mi Calm Calm - 0.08 in Rain Rain
3:53 AM 63.0 °F 61.0 °F 93% 30.16 in 5.0 mi Calm Calm - 0.10 in Rain Light Rain
4:53 AM 62.1 °F 60.1 °F 93% 30.15 in 10.0 mi Calm Calm - 0.02 in   Overcast
5:53 AM 63.0 °F 60.1 °F 90% 30.17 in 10.0 mi East 5.8 mph - 0.00 in Rain Light Rain
6:53 AM 63.0 °F 60.1 °F 90% 30.18 in 10.0 mi NE 5.8 mph - 0.01 in Rain Light Rain
7:53 AM 63.0 °F 60.1 °F 90% 30.19 in 8.0 mi Calm Calm - 0.01 in Rain Light Rain
8:53 AM 64.0 °F 61.0 °F 90% 30.19 in 10.0 mi East 4.6 mph - 0.01 in Rain Light Rain
9:53 AM 66.0 °F 61.0 °F 84% 30.20 in 10.0 mi Calm Calm - 0.00 in   Overcast
10:53 AM 66.9 °F 62.1 °F 84% 30.20 in 10.0 mi NE 3.5 mph - N/A   Overcast
11:53 AM 69.1 °F 62.1 °F 78% 30.19 in 10.0 mi Calm Calm - N/A   Overcast
12:53 PM 71.1 °F 63.0 °F 75% 30.18 in 10.0 mi Calm Calm - N/A   Overcast
1:53 PM 73.0 °F 63.0 °F 71% 30.17 in 10.0 mi Calm Calm - N/A   Scattered Clouds
2:53 PM 73.9 °F 64.0 °F 71% 30.16 in 10.0 mi WNW 3.5 mph - N/A   Scattered Clouds
3:15 PM 73.4 °F 64.4 °F 73% 30.20 in 10.0 mi North 5.8 mph - N/A   Mostly Cloudy
3:42 PM 73.4 °F 64.4 °F 73% 30.19 in 10.0 mi NNW 6.9 mph - N/A   Overcast
3:53 PM 73.0 °F 64.0 °F 73% 30.16 in 10.0 mi NNW 9.2 mph - N/A   Overcast
4:53 PM 71.1 °F 64.9 °F 81% 30.15 in 6.0 mi NNW 5.8 mph - 0.01 in Rain Light Rain
5:53 PM 70.0 °F 66.0 °F 87% 30.15 in 9.0 mi West 3.5 mph - 0.00 in   Overcast
6:31 PM 69.8 °F 66.2 °F 88% 30.18 in 10.0 mi Calm Calm - N/A   Overcast
6:34 PM 69.8 °F 66.2 °F 88% 30.18 in 10.0 mi Calm Calm - N/A   Overcast
6:53 PM 70.0 °F 66.0 °F 87% 30.14 in 8.0 mi Calm Calm - N/A   Overcast
7:31 PM 69.8 °F 66.2 °F 88% 30.18 in 2.5 mi Calm Calm - 0.01 in Rain Light Rain
7:53 PM 69.1 °F 66.0 °F 90% 30.14 in 7.0 mi Calm Calm - 0.01 in   Overcast
8:31 PM 68.0 °F 66.2 °F 94% 30.16 in 9.0 mi East 5.8 mph - N/A   Mostly Cloudy
8:53 PM 68.0 °F 64.9 °F 90% 30.13 in 8.0 mi Calm Calm - N/A   Mostly Cloudy
9:53 PM 68.0 °F 66.0 °F 93% 30.14 in 6.0 mi Calm Calm - N/A   Overcast
10:53 PM 66.9 °F 64.9 °F 93% 30.14 in 8.0 mi Calm Calm - N/A   Overcast
11:53 PM 66.9 °F 64.9 °F 93% 30.14 in 10.0 mi Calm Calm - N/A   Overcast